Laurens, SC

2:16 PM EDT on May 24, 2017 (GMT -0400)
Laurens

Weather History for KLUX - April, 2014

Change the Weather History Date:

Wednesday, April 16, 2014

  Actual Average (KGSP) Record (KGSP)
Temperature  
Mean Temperature 46 °F -  
Max Temperature 59 °F 72 °F 88 °F (1888)
Min Temperature 32 °F 47 °F 24 °F (1907)
Degree Days  
Heating Degree Days 20    
Moisture  
Dew Point 28 °F    
Average Humidity 54    
Maximum Humidity 100    
Minimum Humidity 27    
Precipitation  
Precipitation 0.00 in - - ()
Sea Level Pressure  
Sea Level Pressure 30.29 in    
Wind  
Wind Speed 6 mph (NE)    
Max Wind Speed 14 mph    
Max Gust Speed 22 mph    
Visibility 10 miles    
Events      
Averages and records for this station are not official NWS values.
T = Trace of Precipitation, MM = Missing Value Source: NWS Daily Summary

Daily Weather History Graph

Daily Weather History Graph

Search for Another Location

Airport or City:

Trip Planner

Search our weather history database for the weather conditions in past years. The results will help you decide how hot, cold, wet, or windy it might be!

Date:

Astronomy

Apr. 16, 2014 Rise Set
Actual Time 6:55 AM EDT 8:00 PM EDT
Civil Twilight 6:29 AM EDT 8:26 PM EDT
Nautical Twilight 5:58 AM EDT 8:57 PM EDT
Astronomical Twilight 5:26 AM EDT 9:29 PM EDT
Moon 9:39 PM EDT (4/16) 7:44 AM EDT (4/16)
Length of Visible Light 13h 57m
Length of Day
13h 05m
Full, 98% of the Moon is Illuminated
Apr 16
Full
Apr 22
Last Quarter
Apr 29
New
May 6
First Quarter
May 14
Full

Hourly Weather History & Observations

Time (EDT) Temp. Windchill Dew Point Humidity Pressure Visibility Wind Dir Wind Speed Gust Speed Precip Events Conditions
12:15 AM 39.2 °F 35.0 °F 28.4 °F 65% 30.08 in 10.0 mi NNW 5.8 mph - N/A   Clear
12:35 AM 37.4 °F 33.8 °F 28.4 °F 70% 30.10 in 10.0 mi NNW 4.6 mph - N/A   Clear
12:55 AM 37.4 °F 34.9 °F 30.2 °F 75% 30.11 in 10.0 mi NNW 3.5 mph - N/A   Clear
1:15 AM 37.4 °F 33.8 °F 28.4 °F 70% 30.11 in 10.0 mi NNE 4.6 mph - N/A   Clear
1:35 AM 35.6 °F 32.8 °F 28.4 °F 75% 30.13 in 10.0 mi North 3.5 mph - N/A   Clear
1:55 AM 35.6 °F - 30.2 °F 81% 30.14 in 10.0 mi Calm Calm - N/A   Clear
2:15 AM 35.6 °F 32.8 °F 30.2 °F 81% 30.15 in 10.0 mi North 3.5 mph - N/A   Clear
2:35 AM 35.6 °F 31.7 °F 30.2 °F 81% 30.15 in 10.0 mi North 4.6 mph - N/A   Clear
2:55 AM 33.8 °F 29.6 °F 30.2 °F 87% 30.15 in 10.0 mi North 4.6 mph - N/A   Clear
3:15 AM 33.8 °F 30.8 °F 30.2 °F 87% 30.16 in 10.0 mi North 3.5 mph - N/A   Clear
3:35 AM 33.8 °F 29.6 °F 30.2 °F 87% 30.17 in 10.0 mi NNE 4.6 mph - N/A   Clear
3:55 AM 33.8 °F 28.6 °F 30.2 °F 87% 30.18 in 10.0 mi NNE 5.8 mph - N/A   Clear
4:15 AM 35.6 °F 30.7 °F 28.4 °F 75% 30.19 in 10.0 mi ENE 5.8 mph - N/A   Clear
4:55 AM 33.8 °F 29.6 °F 28.4 °F 81% 30.20 in 10.0 mi NE 4.6 mph - N/A   Clear
5:15 AM 33.8 °F - 28.4 °F 81% 30.22 in 10.0 mi Calm Calm - N/A   Clear
5:35 AM 32.0 °F 28.7 °F 32.0 °F 100% 30.23 in 10.0 mi NNE 3.5 mph - N/A   Clear
5:55 AM 32.0 °F 28.7 °F - N/A% 30.24 in 10.0 mi North 3.5 mph - N/A   Clear
6:15 AM 32.0 °F 28.7 °F - N/A% 30.25 in 10.0 mi NE 3.5 mph - N/A   Clear
6:35 AM 32.0 °F 26.4 °F - N/A% 30.26 in 10.0 mi NE 5.8 mph - N/A   Clear
6:55 AM 32.0 °F 25.6 °F - N/A% 30.27 in 10.0 mi NE 6.9 mph - N/A   Clear
7:15 AM 33.8 °F 27.7 °F 32.0 °F 93% 30.29 in 10.0 mi NE 6.9 mph - N/A   Clear
7:35 AM 33.8 °F 27.0 °F 28.4 °F 81% 30.30 in 10.0 mi NE 8.1 mph - N/A   Clear
7:55 AM 35.6 °F 28.6 °F 28.4 °F 75% 30.31 in 10.0 mi NE 9.2 mph - N/A   Clear
8:15 AM 35.6 °F 29.9 °F 26.6 °F 70% 30.32 in 10.0 mi NE 6.9 mph - N/A   Clear
8:35 AM 37.4 °F 30.8 °F 26.6 °F 65% 30.33 in 10.0 mi NE 9.2 mph - N/A   Scattered Clouds
8:55 AM 39.2 °F 33.0 °F 28.4 °F 65% 30.34 in 10.0 mi NE 9.2 mph 16.1 mph N/A   Clear
9:15 AM 41.0 °F 35.2 °F 26.6 °F 57% 30.35 in 10.0 mi ENE 9.2 mph - N/A   Clear
9:35 AM 42.8 °F 36.6 °F 26.6 °F 53% 30.35 in 10.0 mi ENE 11.5 mph 19.6 mph N/A   Clear
9:55 AM 42.8 °F 36.2 °F 26.6 °F 53% 30.36 in 10.0 mi NE 12.7 mph 17.3 mph N/A   Clear
10:15 AM 44.6 °F 38.4 °F 23.0 °F 43% 30.36 in 10.0 mi NNE 12.7 mph 17.3 mph N/A   Clear
10:35 AM 44.6 °F 39.7 °F 21.2 °F 39% 30.36 in 10.0 mi NE 9.2 mph 21.9 mph N/A   Clear
11:15 AM 46.4 °F 40.4 °F 23.0 °F 40% 30.37 in 10.0 mi NNE 13.8 mph 19.6 mph N/A   Clear
11:35 AM 48.2 °F - 23.0 °F 37% 30.37 in 10.0 mi NE 10.4 mph 19.6 mph N/A   Clear
11:55 AM 48.2 °F - 23.0 °F 37% 30.37 in 10.0 mi NE 8.1 mph - N/A   Clear
12:15 PM 50.0 °F - 23.0 °F 35% 30.36 in 10.0 mi ENE 10.4 mph 18.4 mph N/A   Clear
12:35 PM 50.0 °F - 23.0 °F 35% 30.36 in 10.0 mi ENE 8.1 mph - N/A   Clear
12:55 PM 51.8 °F - 24.8 °F 35% 30.35 in 10.0 mi NE 6.9 mph - N/A   Clear
1:15 PM 51.8 °F - 24.8 °F 35% 30.35 in 10.0 mi ENE 6.9 mph - N/A   Clear
1:35 PM 53.6 °F - 24.8 °F 33% 30.34 in 10.0 mi NE 10.4 mph - N/A   Clear
1:55 PM 53.6 °F - 23.0 °F 30% 30.34 in 10.0 mi NNE 8.1 mph - N/A   Clear
2:15 PM 53.6 °F - 23.0 °F 30% 30.33 in 10.0 mi East 10.4 mph - N/A   Clear
2:35 PM 53.6 °F - 23.0 °F 30% 30.33 in 10.0 mi Calm Calm - N/A   Clear
2:55 PM 57.2 °F - 24.8 °F 29% 30.33 in 10.0 mi East 9.2 mph - N/A   Clear
3:15 PM 55.4 °F - 23.0 °F 29% 30.32 in 10.0 mi ENE 8.1 mph 17.3 mph N/A   Clear
3:35 PM 55.4 °F - 23.0 °F 29% 30.32 in 10.0 mi East 6.9 mph - N/A   Clear
3:55 PM 57.2 °F - 24.8 °F 29% 30.31 in 10.0 mi East 10.4 mph - N/A   Clear
4:15 PM 59.0 °F - 24.8 °F 27% 30.30 in 10.0 mi East 4.6 mph - N/A   Clear
4:55 PM 59.0 °F - 26.6 °F 29% 30.30 in 10.0 mi ENE 8.1 mph - N/A   Clear
5:15 PM 59.0 °F - 26.6 °F 29% 30.30 in 10.0 mi East 5.8 mph 9.2 mph N/A   Clear
5:35 PM 59.0 °F - 26.6 °F 29% 30.30 in 10.0 mi ENE 4.6 mph - N/A   Clear
5:55 PM 59.0 °F - 26.6 °F 29% 30.30 in 10.0 mi East 8.1 mph - N/A   Clear
6:15 PM 59.0 °F - 26.6 °F 29% 30.31 in 10.0 mi ENE 9.2 mph - N/A   Clear
6:35 PM 59.0 °F - 26.6 °F 29% 30.31 in 10.0 mi ESE 9.2 mph - N/A   Clear
6:55 PM 57.2 °F - 28.4 °F 33% 30.31 in 10.0 mi East 8.1 mph - N/A   Clear
7:35 PM 55.4 °F - 28.4 °F 36% 30.32 in 10.0 mi East 5.8 mph - N/A   Clear
7:55 PM 53.6 °F - 30.2 °F 41% 30.33 in 10.0 mi East 5.8 mph - N/A   Clear
8:15 PM 51.8 °F - 32.0 °F 47% 30.34 in 10.0 mi East 4.6 mph - N/A   Clear
8:35 PM 50.0 °F - 32.0 °F 50% 30.34 in 10.0 mi East 3.5 mph - N/A   Clear
8:55 PM 50.0 °F - 32.0 °F 50% 30.35 in 10.0 mi East 4.6 mph - N/A   Clear
9:15 PM 46.4 °F 44.3 °F 32.0 °F 57% 30.36 in 10.0 mi East 4.6 mph - N/A   Clear
9:35 PM 46.4 °F 43.5 °F 33.8 °F 62% 30.36 in 10.0 mi East 5.8 mph - N/A   Clear
9:55 PM 46.4 °F 44.3 °F 33.8 °F 62% 30.37 in 10.0 mi East 4.6 mph - N/A   Clear
10:15 PM 44.6 °F 42.2 °F 33.8 °F 66% 30.38 in 10.0 mi ENE 4.6 mph - N/A   Clear
10:35 PM 44.6 °F 42.2 °F 33.8 °F 66% 30.38 in 10.0 mi ENE 4.6 mph - N/A   Clear
11:15 PM 44.6 °F 42.2 °F 32.0 °F 61% 30.39 in 10.0 mi ENE 4.6 mph - N/A   Clear
11:35 PM 44.6 °F 42.2 °F 32.0 °F 61% 30.39 in 10.0 mi East 4.6 mph - N/A   Clear
11:55 PM 44.6 °F 41.4 °F 32.0 °F 61% 30.39 in 10.0 mi East 5.8 mph - N/A   Clear